Weather History for Fort Leonard Wood, MO

Change the Weather History Date:

Saturday, February 25, 2012

  Actual Average Record
Temperature  
Mean Temperature 36 °F -  
Max Temperature 46 °F 46 °F 71 °F (2009)
Min Temperature 26 °F 31 °F 6 °F (2003)
Degree Days  
Heating Degree Days 29    
Moisture  
Dew Point 17 °F    
Average Humidity 50    
Maximum Humidity 90    
Minimum Humidity 24    
Precipitation  
Precipitation 0.00 in - - ()
Sea Level Pressure  
Sea Level Pressure 30.26 in    
Wind  
Wind Speed 7 mph (West)    
Max Wind Speed 13 mph    
Max Gust Speed 18 mph    
Visibility 10 miles    
Events      
Averages and records for this station are not official NWS values.
T = Trace of Precipitation, MM = Missing Value Source: NWS Daily Summary

Daily Weather History Graph

Daily Weather History Graph

Search for Another Location

Airport:

Trip Planner

Search our weather history database for the weather conditions in past years. The results will help you decide how hot, cold, wet, or windy it might be!

Date:

Astronomy

Feb. 25, 2012 Rise Set
Actual Time 6:46 AM CST 5:57 PM CST
Civil Twilight 6:19 AM CST 6:24 PM CST
Nautical Twilight 5:49 AM CST 6:54 PM CST
Astronomical Twilight 5:18 AM CST 7:25 PM CST
Moon 8:15 AM CST (2/25) 9:53 PM CST (2/25)
Length of Visible Light 12h 04m
Length of Day
11h 11m
Waxing Crescent, 14% of the Moon is Illuminated
Feb 25
Waxing Crescent
Feb 29
First Quarter
Mar 8
Full
Mar 14
Last Quarter
Mar 22
New

Hourly Weather History & Observations

Time (CST) Temp. Windchill Dew Point Humidity Pressure Visibility Wind Dir Wind Speed Gust Speed Precip Events Conditions
12:55 AM 32.5 °F 27.1 °F 18.9 °F 57% 30.22 in 10.0 mi NW 5.8 mph - N/A   Mostly Cloudy
1:55 AM 29.3 °F 22.3 °F 19.9 °F 68% 30.23 in 10.0 mi NNW 6.9 mph - N/A   Partly Cloudy
2:55 AM 28.2 °F 24.4 °F 20.8 °F 74% 30.25 in 10.0 mi SW 3.5 mph - N/A   Clear
3:55 AM 28.0 °F 24.2 °F 21.6 °F 77% 30.25 in 10.0 mi WSW 3.5 mph - N/A   Clear
4:55 AM 27.7 °F 23.8 °F 22.3 °F 80% 30.27 in 10.0 mi West 3.5 mph - N/A   Clear
5:55 AM 26.6 °F 22.6 °F 24.1 °F 90% 30.29 in 10.0 mi West 3.5 mph - N/A   Clear
6:55 AM 28.0 °F 19.3 °F 20.3 °F 73% 30.30 in 10.0 mi WNW 9.2 mph - N/A   Clear
7:55 AM 29.1 °F 20.6 °F 21.2 °F 72% 30.33 in 10.0 mi NW 9.2 mph - N/A   Clear
8:55 AM 31.3 °F 23.3 °F 18.3 °F 59% 30.35 in 10.0 mi WNW 9.2 mph 18.4 mph N/A   Clear
9:55 AM 34.0 °F 26.6 °F 15.1 °F 46% 30.35 in 10.0 mi WNW 9.2 mph - N/A   Clear
10:55 AM 37.9 °F 30.9 °F 13.3 °F 36% 30.35 in 10.0 mi NW 10.4 mph - N/A   Clear
11:55 AM 40.8 °F 35.6 °F 14.7 °F 35% 30.34 in 10.0 mi NNW 8.1 mph - N/A   Clear
12:55 PM 43.0 °F 38.2 °F 14.2 °F 31% 30.31 in 10.0 mi NNW 8.1 mph - N/A   Clear
1:55 PM 44.4 °F 40.5 °F 9.7 °F 24% 30.30 in 10.0 mi West 6.9 mph - N/A   Clear
2:55 PM 46.0 °F 43.1 °F 12.4 °F 26% 30.28 in 10.0 mi Variable 5.8 mph - N/A   Clear
3:55 PM 46.2 °F 45.0 °F 10.6 °F 24% 30.27 in 10.0 mi Variable 3.5 mph - N/A   Clear
4:55 PM 46.6 °F - 14.2 °F 27% 30.24 in 10.0 mi SSW 5.8 mph - N/A   Clear
5:55 PM 44.1 °F 42.5 °F 16.2 °F 33% 30.23 in 10.0 mi SSE 3.5 mph - N/A   Clear
6:55 PM 40.1 °F 35.3 °F 17.8 °F 41% 30.21 in 10.0 mi ESE 6.9 mph - N/A   Clear
7:55 PM 38.5 °F 33.4 °F 18.5 °F 45% 30.19 in 10.0 mi SE 6.9 mph - N/A   Clear
8:55 PM 37.6 °F 31.6 °F 18.3 °F 46% 30.18 in 10.0 mi SE 8.1 mph - N/A   Clear
9:55 PM 36.9 °F 30.7 °F 18.9 °F 48% 30.19 in 10.0 mi SE 8.1 mph - N/A   Clear
10:55 PM 37.2 °F 29.6 °F 19.4 °F 49% 30.16 in 10.0 mi SE 11.5 mph - N/A   Clear
11:55 PM 38.1 °F 30.2 °F 19.0 °F 46% 30.14 in 10.0 mi SSE 12.7 mph - N/A   Clear